Temperature
18 18 18 18 18 18 18 17 17 17 17 17 16 16 16 16 16 16 16 16 16 16 16 16 16 16 15 15 15 15 15 15 15 15 15 14 14 14 14 14 14 14 15
18 18 18 18 18 18 18 17 17 17 17 17 16 16 16 16 16 16 16 16 16 16 16 16 16 16 15 15 15 15 15 15 15 15 15 14 14 14 14 14 14 14 14
18 18 18 18 18 18 18 18 17 17 17 17 16 16 16 16 16 16 16 16 16 16 16 16 16 15 15 15 15 15 15 15 15 15 15 15 14 14 14 14 14 14 14
18 18 18 18 18 18 18 18 17 17 17 17 17 16 16 16 16 16 16 16 16 16 15 16 16 15 15 15 15 15 15 15 15 15 15 15 15 14 14 14 14 14 14
19 19 18 18 18 18 18 18 17 17 17 17 17 16 16 16 16 16 16 16 16 15 15 15 15 15 15 15 15 15 15 15 15 15 15 15 15 15 14 14 14 14 14
19 19 19 18 18 18 18 18 17 17 17 17 17 16 16 16 16 16 16 16 16 16 15 15 15 15 15 15 15 15 15 15 15 15 15 15 15 15 15 14 14 14 13
19 19 18 18 18 18 18 18 17 17 17 17 17 16 16 16 16 16 16 16 16 16 15 15 15 15 15 15 15 15 15 15 15 15 15 15 15 15 15 14 14 14 13
19 19 19 19 18 18 18 18 17 17 17 17 17 16 16 16 16 16 16 16 16 16 15 15 15 15 15 15 15 15 15 15 15 15 15 15 15 15 15 14 14 14 14
19 19 19 19 19 18 18 18 17 17 17 17 17 16 16 16 16 16 16 16 16 16 16 15 15 15 15 15 15 15 15 15 15 15 15 15 15 15 15 14 14 14 14
19 19 19 19 19 18 18 18 18 17 17 17 17 16 16 16 16 16 16 16 16 16 16 15 15 15 15 15 15 15 15 15 15 15 14 14 15 15 14 14 14 14 14
19 19 19 19 19 18 18 18 18 17 17 17 16 16 16 16 16 16 16 16 16 16 15 15 15 15 15 15 15 15 15 15 14 14 14 14 14 14 14 14 14 14 14
20 19 19 19 19 18 18 18 17 17 17 17 16 16 16 16 16 16 16 16 16 16 15 15 15 15 15 15 15 15 15 14 14 14 14 14 14 14 14 14 14 14 14
20 19 19 19 19 18 18 18 17 17 17 17 16 16 16 16 16 16 16 16 16 16 15 15 15 15 15 15 14 14 14 14 14 14 14 14 14 14 14 14 14 14 14
20 19 19 19 19 18 18 18 18 17 17 17 16 16 16 16 16 16 16 16 16 15 15 15 15 15 15 15 14 14 14 14 14 14 14 14 14 14 14 14 13 13 13
19 19 19 19 19 19 18 18 18 17 17 17 17 16 16 16 16 16 16 16 16 15 15 15 15 15 15 14 14 14 14 14 14 14 14 14 13 13 13 13 13 13 13
20 19 19 19 19 19 18 18 18 17 17 17 17 16 16 16 16 16 16 16 15 15 15 15 15 15 14 14 14 14 14 14 14 13 13 13 13 13 13 13 13 13 13
20 20 20 20 19 19 19 18 18 18 17 17 17 16 16 16 16 16 16 15 15 15 15 15 15 14 14 14 14 14 14 14 13 13 13 13 13 13 13 13 13 12 12
20 20 20 20 19 19 19 18 18 18 17 17 17 16 16 16 16 16 15 15 15 15 15 15 14 14 14 14 14 13 13 13 13 13 13 13 13 12 12 12 12 12 12
21 20 20 20 20 19 19 18 18 18 17 17 17 17 16 16 16 16 15 15 15 15 15 14 14 14 14 13 13 13 13 13 13 13 12 12 12 12 12 12 12 12 12
21 21 20 20 19 19 19 18 18 17 17 17 17 16 16 16 16 16 15 15 15 15 14 14 14 14 13 13 13 13 13 13 13 12 12 12 12 12 11 11 11 11 11
21 20 20 20 20 19 19 18 18 18 18 17 17 16 16 16 16 15 15 15 15 14 14 14 14 13 13 13 13 12 12 12 12 12 12 12 12 11 11 11 11 10 10
21 20 20 20 19 19 19 18 18 18 17 17 17 16 16 16 16 15 15 15 15 14 14 14 13 13 13 13 13 12 12 12 12 12 12 11 11 11 11 10 10 10 10
20 20 20 19 19 19 19 19 18 18 17 17 17 16 16 16 15 15 15 15 14 14 14 14 13 13 13 13 12 12 12 12 11 11 11 11 10 10 10 10 10 9 9
20 20 20 19 19 19 18 18 18 18 17 17 16 16 16 15 15 15 15 14 14 14 14 13 13 13 13 12 12 12 12 11 11 11 11 10 10 10 10 9 9 9 9
20 20 19 19 19 18 18 18 18 17 17 16 16 16 16 15 15 15 14 14 14 14 13 13 13 13 13 12 12 12 11 11 11 10 10 10 10 10 9 9 9 9 8
20 19 19 19 18 18 18 17 17 17 17 16 16 16 15 15 15 15 14 14 13 13 13 13 12 12 12 12 11 11 11 11 10 10 10 10 9 9 9 9 8 8 8
Wind_Speed
6 6 7 7 7 6 7 7 6 5 5 4 3 3 2 2 3 4 7 7 7 7 7 4 4 4 4 4 4 3 5 4 3 4 4 5 5 5 4 4 4 5 7
5 6 6 6 7 7 7 7 7 6 5 4 3 3 2 1 1 2 5 7 7 7 6 5 3 3 4 5 4 3 3 2 2 3 3 3 4 4 5 4 4 4 6
10 9 8 7 7 8 8 8 7 6 5 5 4 4 4 3 3 3 3 4 6 7 7 6 5 4 4 3 3 3 4 2 1 2 3 3 2 1 4 4 4 3 3
10 10 9 8 8 8 8 8 7 6 5 6 6 5 3 2 1 0 1 2 5 6 6 6 5 4 3 3 3 3 3 3 1 1 2 2 4 3 1 3 3 3 3
12 12 11 10 9 8 8 8 7 6 6 6 6 6 4 2 1 1 2 2 3 4 5 5 5 4 3 3 3 4 4 3 3 2 2 3 3 3 3 1 2 3 3
12 12 10 9 7 7 7 7 7 5 5 6 6 6 6 5 4 2 2 1 2 2 3 4 4 4 3 3 3 3 4 4 4 3 2 2 2 2 3 2 1 1 2
13 12 11 10 9 8 8 8 8 6 5 5 5 5 6 5 5 4 3 2 1 1 1 2 2 2 3 4 4 3 3 3 4 3 2 2 2 2 3 3 2 0 1
13 13 13 12 10 10 10 9 9 7 6 5 4 4 5 4 3 4 4 3 2 2 1 2 3 3 4 4 4 3 2 3 4 4 3 2 1 2 3 3 3 2 2
14 14 13 12 11 11 10 10 10 8 6 6 5 4 4 4 4 4 3 3 2 2 2 2 2 3 3 4 4 3 2 3 3 3 3 2 1 2 2 2 3 4 2
13 14 13 12 11 11 9 9 9 9 7 6 5 4 4 4 4 4 4 3 3 2 3 2 2 2 3 3 3 2 2 3 2 2 3 2 1 2 2 2 2 3 4
14 14 13 12 11 10 9 9 8 7 6 6 5 5 4 4 4 3 3 3 3 3 3 3 3 3 3 3 3 2 3 3 2 2 3 2 2 2 2 2 2 2 3
13 13 13 11 10 10 10 10 9 8 7 7 6 5 4 4 4 3 3 3 3 3 3 3 3 3 2 3 3 3 3 3 2 1 2 1 2 2 2 2 2 2 2
12 11 11 12 12 12 11 10 10 9 8 7 6 5 5 5 5 4 3 3 3 3 3 4 4 3 2 2 2 3 2 2 2 2 2 1 2 2 1 2 2 1 1
13 12 12 12 12 12 11 11 10 9 8 8 7 7 6 6 5 4 3 3 3 3 3 4 4 3 3 3 3 3 3 2 1 1 1 2 3 3 2 2 1 2 2
12 14 14 13 12 11 11 10 10 9 9 9 8 7 6 6 5 4 4 3 3 4 4 4 3 3 3 3 4 3 3 3 2 1 1 1 3 3 3 2 2 2 2
13 14 14 13 13 13 12 11 10 10 10 10 9 7 6 6 5 5 4 4 3 3 3 4 4 3 2 4 6 5 3 3 2 2 1 1 1 2 3 3 3 3 3
11 13 13 13 13 13 13 12 11 10 10 10 9 8 7 7 6 5 4 4 4 3 3 3 4 3 3 5 6 6 4 3 2 2 1 1 1 2 2 2 3 2 2
11 12 11 12 11 11 11 10 9 10 11 10 9 8 8 7 6 5 5 4 3 4 3 3 4 3 3 5 5 6 4 3 2 2 3 2 1 1 2 2 1 1 1
9 10 10 10 10 11 11 11 10 10 10 10 10 9 9 8 7 6 6 4 4 3 3 3 4 4 3 5 5 5 3 2 1 1 1 2 2 2 2 2 1 2 3
7 8 8 8 10 10 11 11 11 10 11 11 10 9 9 9 8 8 6 4 4 4 4 3 4 4 4 5 6 6 3 2 1 1 1 2 3 3 3 3 2 2 3
7 8 9 8 9 10 12 12 11 12 11 9 9 8 8 8 7 6 5 4 4 4 3 3 2 3 4 5 6 6 4 4 3 2 2 2 3 3 3 3 3 4 3
6 8 8 7 6 9 12 11 11 10 8 8 8 8 8 7 6 6 5 4 5 4 3 2 1 2 2 3 4 6 6 5 4 3 3 2 2 2 2 1 2 2 1
7 7 8 7 6 7 10 11 9 8 8 8 8 7 7 5 6 6 6 4 4 4 3 3 2 2 2 2 4 5 5 5 3 2 3 2 2 1 1 2 1 0 0
7 7 8 8 6 6 8 9 8 9 10 9 8 7 7 5 4 4 5 5 5 5 4 4 3 3 2 2 2 2 2 3 2 1 1 0 0 0 1 1 1 0 1
6 8 9 9 7 7 7 7 8 9 9 9 7 7 6 6 4 3 3 5 5 7 7 6 5 4 4 5 5 4 3 3 3 2 1 1 1 0 1 1 1 1 1
7 8 8 8 7 7 7 6 7 9 10 8 7 6 5 5 5 4 2 2 1 3 5 6 5 4 5 4 4 5 5 4 5 4 2 1 2 2 2 2 2 1 2
Wind_Direction
187 167 156 146 139 135 135 135 131 130 119 105 99 88 66 42 37 44 56 61 66 70 75 76 66 71 77 79 85 93 78 63 77 82 52 26 33 45 40 49 57 54 65
188 173 156 152 152 154 150 144 147 144 135 132 134 132 126 98 59 29 41 52 60 64 76 80 76 75 81 73 70 88 92 64 63 108 96 45 13 15 24 28 52 52 59
186 179 167 166 159 157 160 158 160 148 140 132 111 87 65 46 31 27 24 31 60 69 81 85 87 80 84 88 79 96 113 116 31 85 135 137 176 350 359 17 33 44 51
186 180 173 171 168 170 164 157 157 150 144 133 128 129 130 140 188 178 37 34 54 67 83 86 87 85 83 88 87 91 100 115 98 33 54 126 145 137 50 353 5 32 48
186 181 177 176 172 168 161 159 153 153 149 139 138 135 136 154 143 102 76 49 37 57 79 85 84 87 87 90 88 88 86 97 111 109 87 75 69 91 128 124 342 3 4
185 183 178 167 163 157 154 153 151 156 153 144 142 144 147 146 134 130 118 66 37 31 60 83 83 89 91 94 96 95 93 94 95 92 97 117 119 130 124 144 188 320 324
181 180 176 170 166 160 159 159 154 161 162 153 154 155 156 153 156 162 156 136 98 50 29 74 92 96 105 106 101 89 84 90 95 100 102 108 128 142 134 129 145 118 330
181 182 182 177 172 169 165 162 161 164 166 158 157 153 151 149 157 161 159 161 170 186 167 110 107 110 111 109 105 96 93 90 96 98 103 100 100 120 135 144 138 99 9
183 184 184 180 176 173 170 169 166 166 169 162 154 153 152 150 153 155 151 158 175 175 149 131 109 103 107 107 103 95 96 96 92 99 99 99 88 98 106 126 143 143 136
183 184 184 183 179 175 172 167 164 166 165 162 162 162 160 157 150 141 151 162 170 150 133 127 114 94 88 96 98 93 103 101 86 94 94 86 84 83 93 116 126 132 147
183 182 182 182 176 172 169 167 168 164 164 166 163 160 162 156 143 146 162 164 152 143 144 143 127 110 95 94 101 103 110 107 91 86 101 92 91 86 79 94 101 107 123
182 180 178 174 173 175 174 172 172 170 174 172 163 168 164 153 150 156 163 153 146 144 145 142 134 132 121 112 111 109 110 118 113 110 105 96 96 84 75 91 100 117 134
176 173 173 175 178 180 179 178 178 180 178 167 163 166 166 162 165 173 172 162 151 143 133 134 142 146 140 129 130 124 115 123 136 134 134 148 117 103 97 99 99 104 104
174 173 177 181 182 182 181 181 184 182 174 167 167 173 179 177 177 176 174 175 164 156 155 154 160 158 148 136 134 126 113 103 103 116 130 149 152 156 151 127 133 129 104
174 178 181 183 182 182 182 182 183 181 175 170 174 185 187 181 174 172 179 173 167 171 168 153 151 154 149 150 142 135 124 117 104 81 88 119 125 126 135 129 148 136 121
183 184 183 182 183 185 185 183 184 181 174 176 183 185 179 176 179 183 179 164 164 166 155 156 155 160 172 158 153 145 138 137 133 127 103 70 87 95 102 104 116 129 137
188 186 187 187 188 189 186 185 185 178 175 180 182 180 178 178 184 177 164 168 173 162 163 172 163 174 189 166 156 150 144 146 152 157 158 129 79 106 97 71 66 63 92
186 187 187 188 187 185 181 178 172 173 177 180 183 182 179 183 181 170 175 184 177 169 176 183 179 181 199 177 162 153 141 144 162 179 186 183 208 157 134 112 60 359 331
186 187 186 182 179 177 175 167 170 173 175 181 185 184 180 181 178 180 187 188 173 174 183 181 180 186 217 193 175 152 142 148 200 223 181 180 199 220 159 137 164 312 313
172 172 170 168 172 177 168 165 173 175 184 190 189 183 179 179 183 187 186 178 169 183 183 189 193 192 212 208 193 171 157 170 216 273 267 221 215 227 192 173 180 241 276
163 158 155 163 176 171 163 169 175 188 194 187 178 175 177 181 181 179 175 168 165 168 182 197 215 211 219 218 208 190 179 188 202 230 253 255 241 234 214 189 195 226 234
152 153 154 162 167 165 165 172 186 191 175 164 167 173 177 179 174 168 174 168 164 169 187 196 245 265 246 221 214 201 197 187 188 218 232 234 230 225 211 207 240 247 246
158 154 153 152 154 161 165 173 185 170 157 157 165 168 166 169 168 172 176 171 168 172 185 183 210 254 266 247 226 210 203 199 191 212 220 226 240 260 269 281 286 305 175
159 153 146 148 158 165 167 174 170 159 153 158 165 165 163 165 162 167 172 172 178 181 186 193 210 232 253 257 232 204 202 197 200 213 243 306 7 70 309 335 333 307 213
156 153 154 158 163 159 159 163 158 152 153 158 159 158 159 157 154 155 174 186 199 193 191 201 200 199 227 237 206 180 186 188 190 154 105 78 58 16 312 307 299 299 308
154 151 153 153 155 151 150 155 156 153 153 156 161 162 158 152 147 142 117 44 159 186 192 195 191 210 214 207 186 184 184 174 153 132 144 194 212 227 239 250 273 276 267
Height
1548 1550 1551 1553 1555 1556 1557 1558 1559 1560 1560 1561 1561 1561 1561 1560 1560 1560 1559 1559 1559 1558 1557 1557 1557 1556 1556 1557 1557 1558 1558 1558 1559 1559 1559 1560 1560 1560 1559 1559 1558 1557 1557
1547 1549 1551 1552 1554 1555 1557 1558 1559 1560 1561 1561 1561 1561 1561 1561 1561 1561 1560 1560 1559 1559 1558 1558 1557 1557 1557 1557 1558 1558 1558 1559 1559 1560 1560 1561 1562 1561 1561 1560 1559 1559 1558
1545 1547 1550 1552 1553 1555 1557 1558 1559 1560 1561 1561 1561 1562 1562 1562 1562 1561 1561 1561 1560 1559 1559 1558 1558 1558 1558 1558 1558 1558 1559 1559 1559 1560 1561 1561 1561 1561 1562 1561 1561 1560 1559
1543 1545 1548 1550 1552 1554 1556 1557 1559 1560 1561 1561 1561 1562 1562 1562 1562 1562 1562 1561 1561 1560 1560 1559 1559 1558 1558 1558 1559 1559 1559 1559 1559 1559 1560 1561 1561 1561 1562 1562 1562 1561 1560
1540 1543 1546 1549 1551 1553 1555 1557 1558 1559 1560 1561 1562 1562 1562 1562 1562 1562 1562 1561 1561 1561 1560 1560 1559 1559 1559 1559 1559 1559 1559 1559 1559 1559 1560 1560 1560 1561 1561 1562 1562 1562 1561
1538 1541 1545 1548 1550 1552 1554 1556 1557 1559 1560 1561 1561 1562 1562 1563 1563 1562 1562 1562 1562 1561 1561 1561 1560 1560 1560 1560 1560 1560 1560 1560 1560 1560 1560 1560 1560 1561 1561 1561 1561 1561 1562
1535 1539 1542 1545 1548 1550 1553 1555 1557 1558 1559 1560 1561 1562 1562 1563 1563 1563 1563 1562 1562 1562 1561 1561 1561 1560 1560 1560 1561 1560 1560 1560 1560 1560 1560 1560 1561 1561 1561 1561 1561 1561 1562
1532 1535 1539 1542 1545 1548 1551 1553 1555 1557 1558 1559 1560 1561 1562 1562 1563 1563 1563 1562 1562 1562 1562 1562 1561 1561 1561 1561 1561 1561 1561 1561 1561 1561 1561 1561 1561 1561 1561 1561 1561 1561 1562
1528 1532 1536 1540 1543 1546 1549 1551 1553 1555 1557 1559 1560 1561 1561 1562 1562 1563 1563 1562 1562 1562 1562 1562 1562 1562 1561 1561 1561 1561 1561 1561 1561 1561 1561 1561 1561 1561 1561 1561 1561 1562 1561
1526 1529 1533 1537 1540 1544 1547 1550 1552 1554 1556 1557 1559 1560 1561 1561 1562 1562 1562 1562 1563 1563 1562 1562 1562 1562 1562 1562 1561 1561 1561 1561 1561 1561 1561 1561 1561 1561 1561 1561 1561 1561 1561
1522 1526 1530 1534 1538 1542 1545 1547 1550 1552 1554 1556 1557 1559 1560 1561 1561 1562 1562 1562 1562 1563 1563 1563 1562 1562 1562 1562 1562 1562 1561 1561 1561 1561 1561 1561 1561 1561 1561 1561 1561 1561 1561
1519 1523 1527 1532 1535 1539 1542 1545 1548 1550 1552 1554 1556 1558 1559 1560 1561 1561 1562 1562 1562 1562 1562 1563 1563 1562 1562 1562 1562 1562 1561 1561 1561 1561 1561 1561 1561 1561 1561 1561 1561 1561 1561
1517 1521 1525 1529 1532 1536 1539 1543 1546 1548 1550 1553 1555 1556 1557 1559 1559 1560 1561 1561 1562 1562 1562 1562 1562 1562 1562 1562 1561 1561 1561 1561 1561 1561 1561 1561 1561 1561 1561 1560 1560 1560 1560
1515 1519 1522 1526 1530 1533 1537 1540 1543 1546 1548 1551 1553 1554 1556 1557 1558 1559 1560 1560 1561 1561 1561 1561 1561 1561 1561 1561 1561 1561 1561 1561 1561 1560 1560 1560 1560 1560 1560 1560 1559 1559 1559
1513 1516 1519 1523 1527 1530 1534 1537 1540 1543 1546 1548 1550 1552 1554 1556 1557 1557 1558 1559 1559 1560 1560 1560 1560 1560 1560 1560 1560 1560 1560 1560 1560 1560 1559 1559 1559 1559 1559 1558 1558 1558 1558
1511 1514 1517 1520 1524 1527 1530 1534 1537 1540 1543 1545 1547 1550 1552 1554 1555 1556 1557 1557 1558 1558 1559 1559 1559 1559 1559 1559 1559 1559 1559 1559 1559 1558 1558 1558 1558 1558 1557 1557 1557 1557 1556
1509 1512 1515 1518 1521 1524 1528 1531 1534 1537 1540 1543 1545 1547 1550 1551 1552 1554 1555 1555 1556 1557 1557 1557 1558 1558 1558 1558 1558 1558 1558 1557 1557 1557 1557 1556 1556 1556 1556 1555 1555 1555 1554
1508 1510 1513 1516 1519 1522 1525 1529 1532 1535 1537 1540 1542 1545 1547 1549 1550 1552 1553 1554 1554 1555 1555 1555 1556 1556 1556 1556 1556 1556 1556 1556 1555 1555 1555 1555 1555 1555 1554 1554 1553 1552 1552
1505 1508 1511 1514 1517 1520 1523 1527 1529 1532 1535 1537 1540 1542 1544 1546 1548 1549 1550 1551 1552 1552 1553 1553 1553 1554 1554 1554 1554 1554 1554 1554 1553 1553 1553 1553 1552 1552 1552 1551 1550 1550 1549
1504 1506 1509 1512 1515 1518 1521 1524 1527 1529 1532 1534 1537 1539 1542 1543 1545 1547 1548 1549 1550 1550 1550 1551 1551 1551 1551 1552 1552 1552 1551 1551 1551 1551 1551 1550 1550 1550 1549 1549 1548 1547 1546
1503 1505 1508 1510 1513 1516 1519 1521 1524 1526 1529 1532 1534 1537 1539 1541 1543 1545 1546 1547 1547 1548 1548 1548 1548 1548 1549 1549 1549 1549 1549 1548 1548 1548 1548 1548 1547 1547 1546 1546 1545 1544 1544
1501 1503 1506 1508 1511 1514 1517 1519 1521 1524 1527 1530 1532 1534 1537 1539 1540 1542 1543 1544 1545 1545 1545 1545 1545 1545 1546 1546 1546 1546 1546 1546 1545 1545 1545 1545 1544 1544 1543 1543 1542 1541 1541
1499 1502 1504 1507 1510 1512 1515 1517 1519 1522 1525 1527 1529 1532 1534 1536 1537 1539 1540 1541 1542 1542 1542 1543 1543 1543 1543 1543 1543 1543 1543 1543 1542 1542 1542 1542 1541 1540 1540 1539 1539 1538 1537
1498 1500 1503 1505 1508 1510 1513 1515 1518 1520 1522 1525 1527 1529 1531 1533 1534 1536 1537 1538 1539 1539 1540 1540 1540 1540 1540 1540 1540 1539 1540 1539 1539 1539 1538 1538 1537 1537 1536 1536 1535 1534 1533
1496 1499 1501 1503 1506 1508 1511 1513 1515 1518 1520 1522 1524 1526 1528 1530 1531 1533 1534 1535 1536 1536 1537 1537 1537 1538 1537 1537 1537 1537 1536 1536 1536 1535 1535 1534 1533 1533 1532 1532 1531 1530 1529
1495 1497 1500 1502 1504 1507 1509 1511 1513 1515 1517 1519 1522 1523 1525 1527 1528 1530 1531 1532 1533 1534 1534 1535 1535 1535 1535 1535 1534 1534 1534 1533 1533 1532 1531 1530 1529 1529 1528 1528 1527 1526 1525